owner,sensor,date,latitude,longitude,vertical_datum,direction_of_sea_water_velocity,sea_water_speed,upward_sea_water_velocity,qcFlag 
TABS,ioos:station:wmo:42047:1,2007-11-01T00:00:00Z,27.8966,-93.5973,2.0,15.22490714,11.57629042,-99999.0,'11111222,11111222,99999999' 
TABS,ioos:station:wmo:42047:1,2007-11-01T00:30:00Z,27.8966,-93.5973,2.0,26.31279742,14.21258597,-99999.0,'11111222,11111222,99999999' 
TABS,ioos:station:wmo:42047:1,2007-11-01T01:00:00Z,27.8966,-93.5973,2.0,39.83925751,10.92666921,-99999.0,'11111222,11111222,99999999' 
TABS,ioos:station:wmo:42047:1,2007-11-01T01:30:00Z,27.8966,-93.5973,2.0,31.82026796,11.47453703,-99999.0,'11111222,11111222,99999999' 
TABS,ioos:station:wmo:42047:1,2007-11-01T02:00:00Z,27.8966,-93.5973,2.0,55.20078087,9.74236111,-99999.0,'11133222,11111222,99999999' 
TABS,ioos:station:wmo:42047:1,2007-11-01T02:30:00Z,27.8966,-93.5973,2.0,45.32518342,9.970366092,-99999.0,'11133222,11111222,99999999' 
TABS,ioos:station:wmo:42047:1,2007-11-01T03:00:00Z,27.8966,-93.5973,2.0,66.09926814,9.428509957,-99999.0,'11133222,11111222,99999999' 
TABS,ioos:station:wmo:42047:1,2007-11-01T03:30:00Z,27.8966,-93.5973,2.0,57.48034173,5.431648,-99999.0,'11133222,11111222,99999999' 
TABS,ioos:station:wmo:42047:1,2007-11-01T04:00:00Z,27.8966,-93.5973,2.0,38.23243099,9.000544428,-99999.0,'11133222,11111222,99999999' 
TABS,ioos:station:wmo:42047:1,2007-11-01T04:30:00Z,27.8966,-93.5973,2.0,53.08520378,7.642002355,-99999.0,'11133222,11111222,99999999' 
TABS,ioos:station:wmo:42047:1,2007-11-01T05:00:00Z,27.8966,-93.5973,2.0,41.67567564,7.925862729,-99999.0,'11133222,11111222,99999999' 
TABS,ioos:station:wmo:42047:1,2007-11-01T05:30:00Z,27.8966,-93.5973,2.0,51.20785793,6.081422531,-99999.0,'11133222,11111222,99999999' 
TABS,ioos:station:wmo:42047:1,2007-11-01T06:00:00Z,27.8966,-93.5973,2.0,25.72405145,5.483429584,-99999.0,'11133222,11111222,99999999' 
TABS,ioos:station:wmo:42047:1,2007-11-01T07:00:00Z,27.8966,-93.5973,2.0,52.04784249,4.552812318,-99999.0,'11133222,11111222,99999999' 
TABS,ioos:station:wmo:42047:1,2007-11-01T07:30:00Z,27.8966,-93.5973,2.0,4.899291456,3.161550253,-99999.0,'11133222,11111222,99999999' 
TABS,ioos:station:wmo:42047:1,2007-11-01T08:00:00Z,27.8966,-93.5973,2.0,349.0580506,4.583328485,-99999.0,'11133222,11111222,99999999' 
TABS,ioos:station:wmo:42047:1,2007-11-01T08:30:00Z,27.8966,-93.5973,2.0,349.3074389,6.736980036,-99999.0,'11133222,11111222,99999999' 
TABS,ioos:station:wmo:42047:1,2007-11-01T09:00:00Z,27.8966,-93.5973,2.0,17.05713615,6.443423003,-99999.0,'11133222,11111222,99999999' 
TABS,ioos:station:wmo:42047:1,2007-11-01T09:30:00Z,27.8966,-93.5973,2.0,359.62937,6.180129448,-99999.0,'11133222,11144222,99999999' 
TABS,ioos:station:wmo:42047:1,2007-11-01T10:00:00Z,27.8966,-93.5973,2.0,340.7102093,4.23792402,-99999.0,'11133222,11111222,99999999' 
TABS,ioos:station:wmo:42047:1,2007-11-01T10:30:00Z,27.8966,-93.5973,2.0,318.3301266,7.791328513,-99999.0,'11133222,11111222,99999999' 
TABS,ioos:station:wmo:42047:1,2007-11-01T11:00:00Z,27.8966,-93.5973,2.0,322.8184476,5.510081669,-99999.0,'11133222,11111222,99999999' 
TABS,ioos:station:wmo:42047:1,2007-11-01T11:30:00Z,27.8966,-93.5973,2.0,316.605281,7.321427456,-99999.0,'11133222,11111222,99999999' 
TABS,ioos:station:wmo:42047:1,2007-11-01T12:00:00Z,27.8966,-93.5973,2.0,324.6521266,5.271859255,-99999.0,'11133222,11111222,99999999' 
TABS,ioos:station:wmo:42047:1,2007-11-01T12:30:00Z,27.8966,-93.5973,2.0,305.4348113,7.744430257,-99999.0,'11133222,11111222,99999999' 
TABS,ioos:station:wmo:42047:1,2007-11-01T13:00:00Z,27.8966,-93.5973,2.0,331.0232581,5.738362136,-99999.0,'11133222,11111222,99999999' 
TABS,ioos:station:wmo:42047:1,2007-11-01T13:30:00Z,27.8966,-93.5973,2.0,331.1782445,6.699985075,-99999.0,'11133222,11111222,99999999' 
TABS,ioos:station:wmo:42047:1,2007-11-01T14:30:00Z,27.8966,-93.5973,2.0,331.5876155,9.709582895,-99999.0,'11133222,11111222,99999999' 
TABS,ioos:station:wmo:42047:1,2007-11-01T15:00:00Z,27.8966,-93.5973,2.0,332.0761148,8.861794401,-99999.0,'11133222,11111222,99999999' 
TABS,ioos:station:wmo:42047:1,2007-11-01T15:30:00Z,27.8966,-93.5973,2.0,332.5965527,9.777136595,-99999.0,'11133222,11111222,99999999' 
TABS,ioos:station:wmo:42047:1,2007-11-01T16:00:00Z,27.8966,-93.5973,2.0,300.3376848,10.19620027,-99999.0,'11111222,11111222,99999999' 
TABS,ioos:station:wmo:42047:1,2007-11-01T17:00:00Z,27.8966,-93.5973,2.0,317.4049122,9.943605986,-99999.0,'11133222,11111222,99999999' 
TABS,ioos:station:wmo:42047:1,2007-11-01T17:30:00Z,27.8966,-93.5973,2.0,310.4442964,12.64058543,-99999.0,'11111222,11111222,99999999' 
TABS,ioos:station:wmo:42047:1,2007-11-01T18:00:00Z,27.8966,-93.5973,2.0,338.0180603,20.59742945,-99999.0,'11111222,11111222,99999999' 
TABS,ioos:station:wmo:42047:1,2007-11-01T18:30:00Z,27.8966,-93.5973,2.0,339.6144721,19.69343038,-99999.0,'11111222,11111222,99999999' 
TABS,ioos:station:wmo:42047:1,2007-11-01T19:00:00Z,27.8966,-93.5973,2.0,340.7689325,19.33919595,-99999.0,'11111222,11111222,99999999' 
TABS,ioos:station:wmo:42047:1,2007-11-01T20:00:00Z,27.8966,-93.5973,2.0,351.9241732,23.98790112,-99999.0,'11111222,11111222,99999999' 
TABS,ioos:station:wmo:42047:1,2007-11-01T20:30:00Z,27.8966,-93.5973,2.0,350.5715368,25.21058905,-99999.0,'11111222,11111222,99999999' 
TABS,ioos:station:wmo:42047:1,2007-11-01T21:00:00Z,27.8966,-93.5973,2.0,346.5337071,23.66051986,-99999.0,'11111222,11111222,99999999' 
TABS,ioos:station:wmo:42047:1,2007-11-01T21:30:00Z,27.8966,-93.5973,2.0,348.7089099,24.1575868,-99999.0,'11111222,11111222,99999999' 
TABS,ioos:station:wmo:42047:1,2007-11-01T22:00:00Z,27.8966,-93.5973,2.0,348.2068084,23.24058949,-99999.0,'11111222,11111222,99999999' 
TABS,ioos:station:wmo:42047:1,2007-11-01T22:30:00Z,27.8966,-93.5973,2.0,343.3701945,23.79529575,-99999.0,'11111222,11111222,99999999' 
TABS,ioos:station:wmo:42047:1,2007-11-01T23:00:00Z,27.8966,-93.5973,2.0,343.7718201,23.07960355,-99999.0,'11111222,11111222,99999999' 
TABS,ioos:station:wmo:42047:1,2007-11-02T00:00:00Z,27.8966,-93.5973,2.0,347.7332118,21.60324513,-99999.0,'11111222,11111222,99999999' 
TABS,ioos:station:wmo:42047:1,2007-11-02T00:30:00Z,27.8966,-93.5973,2.0,345.7216632,16.05600199,-99999.0,'11111222,11111222,99999999' 
TABS,ioos:station:wmo:42047:1,2007-11-02T01:00:00Z,27.8966,-93.5973,2.0,340.6170662,15.09561857,-99999.0,'11111222,11111222,99999999' 
TABS,ioos:station:wmo:42047:1,2007-11-02T01:30:00Z,27.8966,-93.5973,2.0,347.5572682,14.48012431,-99999.0,'11111222,11111222,99999999' 
TABS,ioos:station:wmo:42047:1,2007-11-02T02:30:00Z,27.8966,-93.5973,2.0,346.7674636,16.95005605,-99999.0,'11111222,11111222,99999999' 
TABS,ioos:station:wmo:42047:1,2007-11-02T03:00:00Z,27.8966,-93.5973,2.0,351.8119393,16.71035607,-99999.0,'11111222,11111222,99999999' 
TABS,ioos:station:wmo:42047:1,2007-11-02T03:30:00Z,27.8966,-93.5973,2.0,349.8318146,14.27420401,-99999.0,'11111222,11111222,99999999' 
TABS,ioos:station:wmo:42047:1,2007-11-02T04:30:00Z,27.8966,-93.5973,2.0,353.6521285,16.00815417,-99999.0,'11111222,11111222,99999999' 
TABS,ioos:station:wmo:42047:1,2007-11-02T05:00:00Z,27.8966,-93.5973,2.0,349.4794507,16.37528931,-99999.0,'11111222,11111222,99999999' 
TABS,ioos:station:wmo:42047:1,2007-11-02T05:30:00Z,27.8966,-93.5973,2.0,339.1782981,14.12233692,-99999.0,'11111222,11111222,99999999' 
TABS,ioos:station:wmo:42047:1,2007-11-02T06:00:00Z,27.8966,-93.5973,2.0,335.8056187,15.78673177,-99999.0,'11111222,11111222,99999999' 
TABS,ioos:station:wmo:42047:1,2007-11-02T06:30:00Z,27.8966,-93.5973,2.0,324.4485163,14.17175007,-99999.0,'11111222,11111222,99999999' 
TABS,ioos:station:wmo:42047:1,2007-11-02T07:00:00Z,27.8966,-93.5973,2.0,323.2722416,12.92603961,-99999.0,'11111222,11111222,99999999' 
TABS,ioos:station:wmo:42047:1,2007-11-02T07:30:00Z,27.8966,-93.5973,2.0,332.8323299,13.60051837,-99999.0,'11111222,11111222,99999999' 
TABS,ioos:station:wmo:42047:1,2007-11-02T08:30:00Z,27.8966,-93.5973,2.0,309.4321395,14.7207133,-99999.0,'11111222,11111222,99999999' 
TABS,ioos:station:wmo:42047:1,2007-11-02T09:00:00Z,27.8966,-93.5973,2.0,310.8361382,16.16470847,-99999.0,'11111222,11111222,99999999' 
TABS,ioos:station:wmo:42047:1,2007-11-02T09:30:00Z,27.8966,-93.5973,2.0,311.370444,14.63110727,-99999.0,'11111222,11111222,99999999' 
TABS,ioos:station:wmo:42047:1,2007-11-02T10:00:00Z,27.8966,-93.5973,2.0,345.3424486,16.32118256,-99999.0,'11111222,11111222,99999999' 
TABS,ioos:station:wmo:42047:1,2007-11-02T10:30:00Z,27.8966,-93.5973,2.0,355.2670158,15.63331379,-99999.0,'11111222,11111222,99999999' 
TABS,ioos:station:wmo:42047:1,2007-11-02T11:00:00Z,27.8966,-93.5973,2.0,347.2274583,14.51928717,-99999.0,'11111222,11111222,99999999' 
TABS,ioos:station:wmo:42047:1,2007-11-02T11:30:00Z,27.8966,-93.5973,2.0,352.9292725,14.4599758,-99999.0,'11111222,11111222,99999999' 
TABS,ioos:station:wmo:42047:1,2007-11-02T12:00:00Z,27.8966,-93.5973,2.0,341.6708215,15.45407713,-99999.0,'11111222,11111222,99999999' 
TABS,ioos:station:wmo:42047:1,2007-11-02T12:30:00Z,27.8966,-93.5973,2.0,340.6995908,15.27870741,-99999.0,'11111222,11111222,99999999' 
TABS,ioos:station:wmo:42047:1,2007-11-02T13:00:00Z,27.8966,-93.5973,2.0,340.7168732,12.1729413,-99999.0,'11111222,11111222,99999999' 
TABS,ioos:station:wmo:42047:1,2007-11-02T14:00:00Z,27.8966,-93.5973,2.0,325.9300516,10.03197388,-99999.0,'11111222,11111222,99999999' 
TABS,ioos:station:wmo:42047:1,2007-11-02T14:30:00Z,27.8966,-93.5973,2.0,335.5164781,10.71336082,-99999.0,'11111222,11111222,99999999' 
TABS,ioos:station:wmo:42047:1,2007-11-02T15:00:00Z,27.8966,-93.5973,2.0,319.7468277,9.827130812,-99999.0,'11133222,11111222,99999999' 
TABS,ioos:station:wmo:42047:1,2007-11-02T15:30:00Z,27.8966,-93.5973,2.0,317.3449695,8.987780594,-99999.0,'11133222,11111222,99999999' 
TABS,ioos:station:wmo:42047:1,2007-11-02T16:00:00Z,27.8966,-93.5973,2.0,318.0883304,9.05704698,-99999.0,'11133222,11111222,99999999' 
TABS,ioos:station:wmo:42047:1,2007-11-02T16:30:00Z,27.8966,-93.5973,2.0,303.1020283,10.80335596,-99999.0,'11111222,11111222,99999999' 
TABS,ioos:station:wmo:42047:1,2007-11-02T17:00:00Z,27.8966,-93.5973,2.0,299.4173917,11.05539687,-99999.0,'11111222,11111222,99999999' 
TABS,ioos:station:wmo:42047:1,2007-11-02T17:30:00Z,27.8966,-93.5973,2.0,305.3917603,10.9296386,-99999.0,'11111222,11111222,99999999' 
TABS,ioos:station:wmo:42047:1,2007-11-02T18:00:00Z,27.8966,-93.5973,2.0,302.8600961,12.44045819,-99999.0,'11111222,11111222,99999999' 
TABS,ioos:station:wmo:42047:1,2007-11-02T18:30:00Z,27.8966,-93.5973,2.0,292.3290251,11.50245626,-99999.0,'11111222,11111222,99999999' 
TABS,ioos:station:wmo:42047:1,2007-11-02T19:00:00Z,27.8966,-93.5973,2.0,299.712917,10.99568097,-99999.0,'11111222,11111222,99999999' 
TABS,ioos:station:wmo:42047:1,2007-11-02T19:30:00Z,27.8966,-93.5973,2.0,299.091521,12.17604205,-99999.0,'11111222,11111222,99999999' 
TABS,ioos:station:wmo:42047:1,2007-11-02T20:00:00Z,27.8966,-93.5973,2.0,308.4256308,10.68393654,-99999.0,'11111222,11111222,99999999' 
TABS,ioos:station:wmo:42047:1,2007-11-02T20:30:00Z,27.8966,-93.5973,2.0,306.8597059,10.88600018,-99999.0,'11111222,11111222,99999999' 
TABS,ioos:station:wmo:42047:1,2007-11-02T21:00:00Z,27.8966,-93.5973,2.0,304.731088,9.162385061,-99999.0,'11133222,11111222,99999999' 
TABS,ioos:station:wmo:42047:1,2007-11-02T21:30:00Z,27.8966,-93.5973,2.0,294.1013389,10.9221106,-99999.0,'11111222,11111222,99999999' 
TABS,ioos:station:wmo:42047:1,2007-11-02T22:00:00Z,27.8966,-93.5973,2.0,293.3448067,12.89564655,-99999.0,'11111222,11111222,99999999' 
TABS,ioos:station:wmo:42047:1,2007-11-02T22:30:00Z,27.8966,-93.5973,2.0,296.0096282,10.60393323,-99999.0,'11111222,11111222,99999999' 
TABS,ioos:station:wmo:42047:1,2007-11-02T23:00:00Z,27.8966,-93.5973,2.0,309.0482646,9.682995404,-99999.0,'11133222,11111222,99999999' 
TABS,ioos:station:wmo:42047:1,2007-11-02T23:30:00Z,27.8966,-93.5973,2.0,316.3884684,8.756551833,-99999.0,'11133222,11111222,99999999' 
TABS,ioos:station:wmo:42047:1,2007-11-03T00:00:00Z,27.8966,-93.5973,2.0,322.405716,8.064645063,-99999.0,'11133222,11111222,99999999' 
TABS,ioos:station:wmo:42047:1,2007-11-03T00:30:00Z,27.8966,-93.5973,2.0,320.7629351,7.746612163,-99999.0,'11133222,11111222,99999999' 
TABS,ioos:station:wmo:42047:1,2007-11-03T01:00:00Z,27.8966,-93.5973,2.0,307.9687835,6.989284656,-99999.0,'11133222,11111222,99999999' 
TABS,ioos:station:wmo:42047:1,2007-11-03T01:30:00Z,27.8966,-93.5973,2.0,315.6361229,5.734989102,-99999.0,'11133222,11111222,99999999' 
TABS,ioos:station:wmo:42047:1,2007-11-03T02:00:00Z,27.8966,-93.5973,2.0,342.6901255,4.671584314,-99999.0,'11133222,11111222,99999999' 
TABS,ioos:station:wmo:42047:1,2007-11-03T02:30:00Z,27.8966,-93.5973,2.0,322.2657456,3.578407467,-99999.0,'11133222,11111222,99999999' 
TABS,ioos:station:wmo:42047:1,2007-11-03T03:00:00Z,27.8966,-93.5973,2.0,344.9662552,4.317788786,-99999.0,'11133222,11111222,99999999' 
TABS,ioos:station:wmo:42047:1,2007-11-03T03:30:00Z,27.8966,-93.5973,2.0,359.5880187,1.390035971,-99999.0,'11133222,11144222,99999999' 
TABS,ioos:station:wmo:42047:1,2007-11-03T04:00:00Z,27.8966,-93.5973,2.0,90.28791539,3.980050251,-99999.0,'11133222,11111222,99999999' 
TABS,ioos:station:wmo:42047:1,2007-11-03T04:30:00Z,27.8966,-93.5973,2.0,73.75088998,2.072800039,-99999.0,'11133222,11111222,99999999' 
TABS,ioos:station:wmo:42047:1,2007-11-03T05:00:00Z,27.8966,-93.5973,2.0,193.2188435,1.530555455,-99999.0,'11133222,11111222,99999999' 
TABS,ioos:station:wmo:42047:1,2007-11-03T05:30:00Z,27.8966,-93.5973,2.0,194.0360002,0.32984845,-99999.0,'11133222,11111222,99999999' 
TABS,ioos:station:wmo:42047:1,2007-11-03T06:00:00Z,27.8966,-93.5973,2.0,141.5904881,1.7866449,-99999.0,'11133222,11111222,99999999' 
TABS,ioos:station:wmo:42047:1,2007-11-03T06:30:00Z,27.8966,-93.5973,2.0,168.5376368,4.428317965,-99999.0,'11133222,11111222,99999999' 
TABS,ioos:station:wmo:42047:1,2007-11-03T07:00:00Z,27.8966,-93.5973,2.0,116.0495998,2.983035367,-99999.0,'11133222,11111222,99999999' 
TABS,ioos:station:wmo:42047:1,2007-11-03T07:30:00Z,27.8966,-93.5973,2.0,147.7519847,2.754959165,-99999.0,'11133222,11111222,99999999' 
TABS,ioos:station:wmo:42047:1,2007-11-03T08:00:00Z,27.8966,-93.5973,2.0,139.4490928,2.461077,-99999.0,'11133222,11111222,99999999' 
TABS,ioos:station:wmo:42047:1,2007-11-03T08:30:00Z,27.8966,-93.5973,2.0,159.8635332,4.15390178,-99999.0,'11133222,11111222,99999999' 
TABS,ioos:station:wmo:42047:1,2007-11-03T09:00:00Z,27.8966,-93.5973,2.0,198.0602192,2.419194081,-99999.0,'11133222,11111222,99999999' 
TABS,ioos:station:wmo:42047:1,2007-11-03T09:30:00Z,27.8966,-93.5973,2.0,211.3960668,4.088642807,-99999.0,'11133222,11111222,99999999' 
TABS,ioos:station:wmo:42047:1,2007-11-03T10:00:00Z,27.8966,-93.5973,2.0,193.9646482,1.947562579,-99999.0,'11133222,11111222,99999999' 
TABS,ioos:station:wmo:42047:1,2007-11-03T10:30:00Z,27.8966,-93.5973,2.0,214.0376227,3.197905565,-99999.0,'11133222,11111222,99999999' 
TABS,ioos:station:wmo:42047:1,2007-11-03T11:00:00Z,27.8966,-93.5973,2.0,186.8021188,5.065658891,-99999.0,'11133222,11111222,99999999' 
TABS,ioos:station:wmo:42047:1,2007-11-03T11:30:00Z,27.8966,-93.5973,2.0,204.1537545,4.252293499,-99999.0,'11133222,11111222,99999999' 
TABS,ioos:station:wmo:42047:1,2007-11-03T12:00:00Z,27.8966,-93.5973,2.0,162.1657415,5.126333973,-99999.0,'11133222,11111222,99999999' 
TABS,ioos:station:wmo:42047:1,2007-11-03T12:30:00Z,27.8966,-93.5973,2.0,186.2822669,5.48292805,-99999.0,'11133222,11111222,99999999' 
TABS,ioos:station:wmo:42047:1,2007-11-03T13:00:00Z,27.8966,-93.5973,2.0,188.3163295,6.083978961,-99999.0,'11133222,11111222,99999999' 
TABS,ioos:station:wmo:42047:1,2007-11-03T13:30:00Z,27.8966,-93.5973,2.0,181.3952662,8.212435692,-99999.0,'11133222,11111222,99999999' 
TABS,ioos:station:wmo:42047:1,2007-11-03T14:00:00Z,27.8966,-93.5973,2.0,183.4944203,7.874642849,-99999.0,'11133222,11111222,99999999' 
TABS,ioos:station:wmo:42047:1,2007-11-03T14:30:00Z,27.8966,-93.5973,2.0,182.3510701,11.69985043,-99999.0,'11111222,11111222,99999999' 
TABS,ioos:station:wmo:42047:1,2007-11-03T15:00:00Z,27.8966,-93.5973,2.0,187.5181988,9.935416448,-99999.0,'11133222,11111222,99999999' 
TABS,ioos:station:wmo:42047:1,2007-11-03T15:30:00Z,27.8966,-93.5973,2.0,205.2492031,13.24548602,-99999.0,'11111222,11111222,99999999' 
TABS,ioos:station:wmo:42047:1,2007-11-03T16:00:00Z,27.8966,-93.5973,2.0,216.0676146,11.43111981,-99999.0,'11111222,11111222,99999999' 
TABS,ioos:station:wmo:42047:1,2007-11-03T16:30:00Z,27.8966,-93.5973,2.0,225.1357782,11.90771179,-99999.0,'11111222,11111222,99999999' 
TABS,ioos:station:wmo:42047:1,2007-11-03T17:00:00Z,27.8966,-93.5973,2.0,221.4092436,12.53331959,-99999.0,'11111222,11111222,99999999' 
TABS,ioos:station:wmo:42047:1,2007-11-03T18:00:00Z,27.8966,-93.5973,2.0,222.5343757,17.42509684,-99999.0,'11111222,11111222,99999999' 
TABS,ioos:station:wmo:42047:1,2007-11-03T18:30:00Z,27.8966,-93.5973,2.0,233.656345,18.93279958,-99999.0,'11111222,11111222,99999999' 
TABS,ioos:station:wmo:42047:1,2007-11-03T19:00:00Z,27.8966,-93.5973,2.0,231.9935729,21.08014469,-99999.0,'11111222,11111222,99999999' 
TABS,ioos:station:wmo:42047:1,2007-11-03T20:00:00Z,27.8966,-93.5973,2.0,236.8960145,21.67881916,-99999.0,'11111222,11111222,99999999' 
TABS,ioos:station:wmo:42047:1,2007-11-03T21:00:00Z,27.8966,-93.5973,2.0,242.8917933,22.18726211,-99999.0,'11111222,11111222,99999999' 
TABS,ioos:station:wmo:42047:1,2007-11-03T21:30:00Z,27.8966,-93.5973,2.0,247.2063383,21.34702087,-99999.0,'11111222,11111222,99999999' 
TABS,ioos:station:wmo:42047:1,2007-11-03T22:00:00Z,27.8966,-93.5973,2.0,254.2515943,17.94351694,-99999.0,'11111222,11111222,99999999' 
TABS,ioos:station:wmo:42047:1,2007-11-03T22:30:00Z,27.8966,-93.5973,2.0,286.3123423,14.17040578,-99999.0,'11111222,11111222,99999999' 
TABS,ioos:station:wmo:42047:1,2007-11-03T23:00:00Z,27.8966,-93.5973,2.0,302.5000221,13.88436891,-99999.0,'11111222,11111222,99999999' 
TABS,ioos:station:wmo:42047:1,2007-11-03T23:30:00Z,27.8966,-93.5973,2.0,309.3353656,10.60181117,-99999.0,'11111222,11111222,99999999' 
TABS,ioos:station:wmo:42047:1,2007-11-04T00:00:00Z,27.8966,-93.5973,2.0,316.3199007,10.43966475,-99999.0,'11111222,11111222,99999999' 
TABS,ioos:station:wmo:42047:1,2007-11-04T00:30:00Z,27.8966,-93.5973,2.0,309.5484417,9.972893261,-99999.0,'11133222,11111222,99999999' 
TABS,ioos:station:wmo:42047:1,2007-11-04T01:00:00Z,27.8966,-93.5973,2.0,312.5626159,8.14617088,-99999.0,'11133222,11111222,99999999' 
TABS,ioos:station:wmo:42047:1,2007-11-04T01:30:00Z,27.8966,-93.5973,2.0,307.8286203,9.685354924,-99999.0,'11133222,11111222,99999999' 
TABS,ioos:station:wmo:42047:1,2007-11-04T02:00:00Z,27.8966,-93.5973,2.0,314.2018218,8.118374221,-99999.0,'11133222,11111222,99999999' 
TABS,ioos:station:wmo:42047:1,2007-11-04T02:30:00Z,27.8966,-93.5973,2.0,303.2710731,7.200201386,-99999.0,'11133222,11111222,99999999' 
TABS,ioos:station:wmo:42047:1,2007-11-04T03:30:00Z,27.8966,-93.5973,2.0,332.8635543,4.034067426,-99999.0,'11133222,11111222,99999999' 
TABS,ioos:station:wmo:42047:1,2007-11-04T04:00:00Z,27.8966,-93.5973,2.0,302.1906129,3.284950532,-99999.0,'11133222,11111222,99999999' 
TABS,ioos:station:wmo:42047:1,2007-11-04T04:30:00Z,27.8966,-93.5973,2.0,322.4523757,3.380236678,-99999.0,'11133222,11111222,99999999' 
TABS,ioos:station:wmo:42047:1,2007-11-04T05:00:00Z,27.8966,-93.5973,2.0,279.5036465,2.301586409,-99999.0,'11133222,11111222,99999999' 
TABS,ioos:station:wmo:42047:1,2007-11-04T05:30:00Z,27.8966,-93.5973,2.0,252.6062976,0.869770085,-99999.0,'11133222,11111222,99999999' 
TABS,ioos:station:wmo:42047:1,2007-11-04T06:00:00Z,27.8966,-93.5973,2.0,245.7937506,2.390146439,-99999.0,'11133222,11111222,99999999' 
TABS,ioos:station:wmo:42047:1,2007-11-04T06:30:00Z,27.8966,-93.5973,2.0,234.6006026,2.882949878,-99999.0,'11133222,11111222,99999999' 
TABS,ioos:station:wmo:42047:1,2007-11-04T07:00:00Z,27.8966,-93.5973,2.0,190.4030579,2.602786968,-99999.0,'11133222,11111222,99999999' 
TABS,ioos:station:wmo:42047:1,2007-11-04T07:30:00Z,27.8966,-93.5973,2.0,198.7160137,1.93217494,-99999.0,'11133222,11111222,99999999' 
TABS,ioos:station:wmo:42047:1,2007-11-04T08:00:00Z,27.8966,-93.5973,2.0,255.0812126,2.835577543,-99999.0,'11133222,11111222,99999999' 
TABS,ioos:station:wmo:42047:1,2007-11-04T08:30:00Z,27.8966,-93.5973,2.0,259.1765932,1.384629914,-99999.0,'11133222,11111222,99999999' 
TABS,ioos:station:wmo:42047:1,2007-11-04T09:00:00Z,27.8966,-93.5973,2.0,311.7226474,1.60776242,-99999.0,'11133222,11111222,99999999' 
TABS,ioos:station:wmo:42047:1,2007-11-04T09:30:00Z,27.8966,-93.5973,2.0,187.8462334,2.856746401,-99999.0,'11133222,11111222,99999999' 
TABS,ioos:station:wmo:42047:1,2007-11-04T10:00:00Z,27.8966,-93.5973,2.0,239.489413,1.3,-99999.0,'11133222,11111222,99999999' 
TABS,ioos:station:wmo:42047:1,2007-11-04T11:00:00Z,27.8966,-93.5973,2.0,161.1362461,1.268108828,-99999.0,'11133222,11111222,99999999' 
TABS,ioos:station:wmo:42047:1,2007-11-04T11:30:00Z,27.8966,-93.5973,2.0,162.7902723,1.182962383,-99999.0,'11133222,11111222,99999999' 
TABS,ioos:station:wmo:42047:1,2007-11-04T12:00:00Z,27.8966,-93.5973,2.0,179.2924718,5.670432082,-99999.0,'11133222,11111222,99999999' 
TABS,ioos:station:wmo:42047:1,2007-11-04T12:30:00Z,27.8966,-93.5973,2.0,169.2246273,5.883740307,-99999.0,'11133222,11111222,99999999' 
TABS,ioos:station:wmo:42047:1,2007-11-04T13:00:00Z,27.8966,-93.5973,2.0,188.920497,5.739425058,-99999.0,'11133222,11111222,99999999' 
TABS,ioos:station:wmo:42047:1,2007-11-04T13:30:00Z,27.8966,-93.5973,2.0,175.7606602,7.711095901,-99999.0,'11133222,11111222,99999999' 
TABS,ioos:station:wmo:42047:1,2007-11-04T14:00:00Z,27.8966,-93.5973,2.0,197.8804372,8.826329928,-99999.0,'11133222,11111222,99999999' 
TABS,ioos:station:wmo:42047:1,2007-11-04T14:30:00Z,27.8966,-93.5973,2.0,188.0524812,9.422913562,-99999.0,'11133222,11111222,99999999' 
TABS,ioos:station:wmo:42047:1,2007-11-04T15:30:00Z,27.8966,-93.5973,2.0,189.621932,11.78580926,-99999.0,'11111222,11111222,99999999' 
TABS,ioos:station:wmo:42047:1,2007-11-04T16:30:00Z,27.8966,-93.5973,2.0,196.4766324,11.10607942,-99999.0,'11111222,11111222,99999999' 
TABS,ioos:station:wmo:42047:1,2007-11-04T17:00:00Z,27.8966,-93.5973,2.0,195.2270861,10.85096309,-99999.0,'11111222,11111222,99999999' 
TABS,ioos:station:wmo:42047:1,2007-11-04T18:30:00Z,27.8966,-93.5973,2.0,200.2882763,9.776553585,-99999.0,'11133222,11111222,99999999' 
TABS,ioos:station:wmo:42047:1,2007-11-04T19:00:00Z,27.8966,-93.5973,2.0,208.4013247,12.69844479,-99999.0,'11111222,11111222,99999999' 
TABS,ioos:station:wmo:42047:1,2007-11-04T20:00:00Z,27.8966,-93.5973,2.0,210.7296982,9.667455715,-99999.0,'11133222,11111222,99999999' 
TABS,ioos:station:wmo:42047:1,2007-11-04T20:30:00Z,27.8966,-93.5973,2.0,221.3692408,10.27366536,-99999.0,'11111222,11111222,99999999' 
TABS,ioos:station:wmo:42047:1,2007-11-04T21:00:00Z,27.8966,-93.5973,2.0,220.8350214,8.762978946,-99999.0,'11133222,11111222,99999999' 
TABS,ioos:station:wmo:42047:1,2007-11-04T21:30:00Z,27.8966,-93.5973,2.0,243.1062518,7.804005382,-99999.0,'11133222,11111222,99999999' 
TABS,ioos:station:wmo:42047:1,2007-11-04T22:00:00Z,27.8966,-93.5973,2.0,250.6188406,8.045930648,-99999.0,'11133222,11111222,99999999' 
TABS,ioos:station:wmo:42047:1,2007-11-04T22:30:00Z,27.8966,-93.5973,2.0,276.1470322,7.191342017,-99999.0,'11133222,11111222,99999999' 
TABS,ioos:station:wmo:42047:1,2007-11-04T23:00:00Z,27.8966,-93.5973,2.0,293.905357,6.070757778,-99999.0,'11133222,11111222,99999999' 
TABS,ioos:station:wmo:42047:1,2007-11-04T23:30:00Z,27.8966,-93.5973,2.0,316.9061226,4.039814352,-99999.0,'11133222,11111222,99999999' 
TABS,ioos:station:wmo:42047:1,2007-11-05T00:00:00Z,27.8966,-93.5973,2.0,335.488899,7.737292808,-99999.0,'11133222,11111222,99999999' 
TABS,ioos:station:wmo:42047:1,2007-11-05T00:30:00Z,27.8966,-93.5973,2.0,347.5486026,8.85836328,-99999.0,'11133222,11111222,99999999' 
TABS,ioos:station:wmo:42047:1,2007-11-05T01:00:00Z,27.8966,-93.5973,2.0,343.3377068,11.96229493,-99999.0,'11111222,11111222,99999999' 
TABS,ioos:station:wmo:42047:1,2007-11-05T02:00:00Z,27.8966,-93.5973,2.0,359.0919409,8.201030423,-99999.0,'11133222,11144222,99999999' 